Renton, WA
on Thursday, February 7, 2013

Thursday
Previous Day Next Day
Daily Summary
 ActualAverage (KSEA)Record (KSEA)
Temperature
Mean Temperature °F 43°F  
Max Temperature 48°F 49°F 66°F (1963)
Min Temperature 34°F 37°F 20°F (1989)
Degree Days
Heating Degree Days 24 22  
Month to date heating degree days 154  
Since 1 July heating degree days 2803  
Cooling Degree Days 0 0  
Month to date cooling degree days 0  
Year to date cooling degree days 0  
Moisture
Dew Point 36°F   
Average Humidity 75    
Maximum Humidity 96    
Minimum Humidity 50    
Precipitation
Precipitation 0.06 in 0.14 in 2.58 in (1955)
Month to date precipitation 0.94  
Year to date precipitation 6.51  
Snow
Snow 0.00 in in T in (1994)
Month to date snowfall  
Since 1 July snowfall  
Snow Depth in   
Wind
Wind Speed 5 mph   
Max Wind Speed 14 mph   
Max Gust Speed 24 mph   
Visibility 10 miles   
Events Rain   

Key: T is trace of precipitation, MM is missing value
Source: NWS Daily Summary
Time(PST)TemperatureDew PointHumidity Pressure Visibility Wind DirectionWind SpeedGust SpeedPrecipitationEvents Conditions
12:53 AM 44.1°F 41.0°F 89% 29.82 in 10.0 miles SSW 3.5 mph - 0.00 in Rain Light Rain
1:43 AM 44.6°F 41.0°F 87% 29.86 in 6.0 miles SSE 9.2 mph 17.3 mph 0.06 in Rain Light Rain
1:53 AM 44.1°F 41.0°F 89% 29.88 in 9.0 miles SSE 10.4 mph 17.3 mph 0.06 in Rain Light Rain
2:53 AM 44.1°F 37.9°F 79% 29.91 in 10.0 miles SSE 9.2 mph - 0.00 in   Overcast
3:53 AM 44.1°F 36.0°F 73% 29.92 in 10.0 miles SSE 13.8 mph 24.2 mph N/A   Overcast
4:53 AM 44.1°F 35.1°F 71% 29.95 in 10.0 miles SSE 9.2 mph 17.3 mph N/A   Mostly Cloudy
5:53 AM 44.1°F 35.1°F 71% 29.97 in 10.0 miles South 9.2 mph - N/A   Overcast
6:14 AM 42.8°F 35.6°F 76% 29.96 in 10.0 miles SSE 8.1 mph - N/A   Overcast
6:24 AM 42.8°F 35.6°F 76% 29.96 in 10.0 miles SSE 8.1 mph - N/A   Mostly Cloudy
6:53 AM 42.1°F 36.0°F 79% 29.98 in 10.0 miles SSE 4.6 mph - N/A   Scattered Clouds
7:53 AM 42.1°F 36.0°F 79% 30.01 in 10.0 miles SSE 4.6 mph - N/A   Scattered Clouds
8:53 AM 42.1°F 36.0°F 79% 30.03 in 10.0 miles SSE 4.6 mph - N/A   Mostly Cloudy
9:53 AM 43.0°F 37.0°F 80% 30.04 in 10.0 miles SSE 3.5 mph - N/A   Overcast
10:53 AM 45.0°F 36.0°F 71% 30.05 in 10.0 miles South 3.5 mph - N/A   Clear
11:53 AM 46.0°F 34.0°F 63% 30.05 in 10.0 miles SSE 4.6 mph - N/A   Scattered Clouds
12:53 PM 48.0°F 33.1°F 56% 30.04 in 10.0 miles Calm Calm - N/A   Clear
1:53 PM 48.9°F 30.9°F 50% 30.04 in 10.0 miles Variable 4.6 mph - N/A   Partly Cloudy
2:53 PM 48.0°F 30.9°F 52% 30.05 in 10.0 miles Calm Calm - N/A   Clear
3:53 PM 48.9°F 33.1°F 54% 30.05 in 10.0 miles NNW 4.6 mph - N/A   Clear
4:53 PM 46.9°F 32.0°F 56% 30.07 in 10.0 miles Calm Calm - N/A   Mostly Cloudy
5:53 PM 44.1°F 35.1°F 71% 30.09 in 10.0 miles Calm Calm - N/A   Clear
6:53 PM 42.1°F 37.0°F 82% 30.11 in 10.0 miles Calm Calm - N/A   Clear
7:53 PM 41.0°F 35.1°F 79% 30.13 in 10.0 miles Calm Calm - N/A   Clear
8:53 PM 39.9°F 36.0°F 86% 30.15 in 10.0 miles Calm Calm - N/A   Clear
9:53 PM 39.0°F 36.0°F 89% 30.17 in 10.0 miles Calm Calm - N/A   Clear
10:53 PM 35.1°F 34.0°F 96% 30.19 in 10.0 miles Calm Calm - N/A   Clear
11:53 PM 34.0°F 33.1°F 96% 30.21 in 10.0 miles Calm Calm - N/A   Clear
Moon Phase
Feb. 07 Feb. 10 Feb. 17 Feb. 25 Mar. 04
Sunrise:07:26 AM (PST) Moon Rise:05:17 AM (PST)2/7
Sunset:05:20 PM (PST) Moon Set:02:45 PM (PST)2/7

Copyright © 2014 The Weather Underground, Inc.